Flag for U.S.A. Weather past 2 weeks in South Bend, Indiana, U.S.A.

Now
72 °F

Sunny.


Feels Like: 77 °F
Forecast: 44 / 70 °F
Wind: 6 mph from East

Location: Michiana Regional Airport

Current Time: Sep 18, 2014 at 4:43:00 PM

Latest Report: Sep 18, 2014 at 3:54 PM


Visibility: 10 mi

Pressure: 30.12 "Hg

Humidity: 40%

Dew point: 46 °F

Location of South BendLocation

Historic Weather in South Bend — Graph

°F

South Bend temperature yesterday

Maximum temperature yesterday: 68 °F (at 3:54 PM)
Minimum temperature yesterday: 43 °F (at 5:54 AM)
Average temperature yesterday: 55 °F

Past Weeks' High & Low Weather Summary

 TemperatureHumidityPressure
High91 °F (Sep 5, 2:54 PM)94% (Sep 6, 4:54 AM)30.36 "Hg (Sep 6, 4:54 AM)
Low43 °F (Sep 14, 1:54 AM)37% (Sep 7, 4:54 PM)29.58 "Hg (Sep 10, 3:54 PM)
Average62 °F75%30.09 "Hg
* Reported Sep 3 2:54 PM — Sep 18 2:54 PM, South Bend, Weather by CustomWeather, © 2014

Note: Actual official high and low records may vary slightly from our data, if they occured in-between our weather recording intervals... More about our weather records

Advertising

South Bend weather history for previous 24 hours

 ConditionsComfort  
Time TempWeatherWind HumidityBarometerVisibility
2:54 PM
Sep 18
71 °FSunny.7 mph42%30.13 "Hg10 mi
1:54 PM70 °FSunny.5 mph42%30.14 "Hg10 mi
12:54 PM67 °FSunny.No wind44%30.15 "Hg10 mi
11:54 AM65 °FSunny.3 mph49%30.16 "Hg10 mi
10:54 AM62 °FSunny.3 mph60%30.16 "Hg10 mi
9:54 AM56 °FSunny.5 mph75%30.16 "Hg10 mi
8:54 AM51 °FSunny.No wind83%30.14 "Hg10 mi
7:54 AM44 °FClear.No wind89%30.11 "Hg10 mi
6:54 AM43 °FClear.3 mph89%30.09 "Hg10 mi
5:54 AM44 °FClear.No wind89%30.08 "Hg10 mi
4:54 AM45 °FClear.3 mph86%30.07 "Hg10 mi
3:54 AM46 °FClear.No wind86%30.06 "Hg10 mi
2:54 AM47 °FClear.No wind86%30.06 "Hg10 mi
1:54 AM46 °FClear.No wind89%30.05 "Hg10 mi
12:54 AM47 °FClear.No wind86%30.04 "Hg10 mi
11:54 PM
Sep 17
49 °FClear.No wind86%30.04 "Hg10 mi
10:54 PM49 °FClear.No wind84%30.04 "Hg10 mi
9:54 PM51 °FClear.No wind80%30.03 "Hg10 mi
8:54 PM53 °FClear.No wind74%30.02 "Hg10 mi
7:54 PM59 °FSunny.6 mph60%30.01 "Hg10 mi
6:54 PM65 °FSunny.9 mph49%30.00 "Hg10 mi
5:54 PM67 °FSunny.9 mph47%30.00 "Hg10 mi
4:54 PM68 °FSunny.9 mph42%30.00 "Hg10 mi
Weather by CustomWeather, © 2014

See weather overviewHow to use our weather pages